• Join FlightAware (Why Join?)
  • Login
  • US Flag GB Flag 
03:53 EDT


 

Airport Tracker/Info


-or-


 

Live Flight TrackerFlight Track Log ✈ SWA157 ✈ 28-Apr-2013 ✈ KMDW - KLAX

Flight Track Log - Related Links

Times and Time Zones

All times are in EDT time to prevent confusion due to time zone crossing. See the SWA157 flight status page for this flight to view local times or setup timezone preferences in your user account.

Time Position Orientation Groundspeed Altitude Reporting Facility
EDT Latitude Longitude Course Direction KTS MPH feet Rate Location/Type
10:03 41.8000 -87.7333 289° West 166 191 1,900  Level Chicago TRACON
10:04 41.8167 -87.8000 289° West 248 285 3,100 540 Climbing Chicago TRACON
10:05 41.7833 -87.8833 242° Southwest 245 282 3,000 240 Descending Chicago TRACON
10:06 41.7717 -87.9519 257° West 253 291 3,600 600 Climbing Chicago Center
10:07 41.7678 -88.0483 267° West 259 298 4,200 1,140 Climbing Chicago Center
10:08 41.7639 -88.1494 267° West 269 310 6,000 840 Climbing Chicago Center
10:09 41.7594 -88.2736 267° West 281 323 6,000  Level Chicago Center
10:10 41.7558 -88.3744 267° West 278 320 6,000 1,020 Level Chicago Center
10:11 41.7519 -88.4775 267° West 278 320 8,100 2,340 Climbing Chicago Center
10:12 41.7472 -88.5839 267° West 286 329 10,900 2,760 Climbing Chicago Center
10:13 41.7431 -88.6953 267° West 299 344 13,800 2,580 Climbing Chicago Center
10:14 41.7206 -88.8069 255° West 313 360 16,200 2,340 Climbing Chicago Center
10:15 41.6917 -88.9489 255° West 330 380 18,700 1,560 Climbing Chicago Center
10:16 41.6631 -89.0828 254° West 371 427 19,500 1,140 Climbing Chicago Center
10:17 41.6317 -89.2303 254° West 411 473 21,100 1,680 Climbing Chicago Center
10:18 41.6053 -89.3817 257° West 422 486 23,000 1,920 Climbing Chicago Center
10:19 41.5850 -89.5589 261° West 429 494 25,100 1,740 Climbing Chicago Center
10:20 41.5639 -89.7189 260° West 439 505 26,600 1,380 Climbing Chicago Center
10:21 41.5428 -89.8814 260° West 446 513 28,000 1,320 Climbing Chicago Center
10:22 41.5211 -90.0453 260° West 450 518 29,400 1,440 Climbing Chicago Center
10:23 41.4981 -90.2100 259° West 454 522 31,000 1,260 Climbing Chicago Center
10:24 41.4767 -90.3722 260° West 450 518 32,100 1,080 Climbing Chicago Center
10:25 41.4539 -90.5356 260° West 450 518 33,300 900 Climbing Chicago Center
10:26 41.4250 -90.7381 259° West 463 533 34,000 300 Climbing Chicago Center
10:27 41.4022 -90.8994 259° West 449 517 34,000  Level Chicago Center
10:28 41.3797 -91.0611 260° West 447 514 34,000  Level Chicago Center
10:29 41.3558 -91.2211 259° West 444 511 34,000  Level Chicago Center
10:30 41.3336 -91.3753 259° West 447 514 34,000  Level Chicago Center
10:31 41.3050 -91.5689 259° West 447 514 34,000  Level Chicago Center
10:32 41.2814 -91.7292 259° West 445 512 34,000  Level Chicago Center
10:34 41.2561 -91.8922 258° West 450 518 34,000  Level Chicago Center
10:35 41.2300 -92.0686 259° West 449 517 34,000  Level Chicago Center
10:36 41.2056 -92.2286 259° West 447 514 34,000 660 Level Chicago Center
10:37 41.1811 -92.3875 258° West 444 511 35,400 960 Climbing Chicago Center
10:38 41.1547 -92.5422 257° West 439 505 36,000 240 Climbing Chicago Center
10:39 41.1303 -92.7022 259° West 443 510 36,000  Level Chicago Center
10:39 41.1211 -92.7672 259° West 442 509 36,000  Level Minneapolis Center
10:40 41.1058 -92.8603 258° West 443 510 36,000  Level Chicago Center
10:40 41.0956 -92.9253 258° West 444 511 36,000  Level Minneapolis Center
10:41 41.0706 -93.0822 258° West 441 507 36,000  Level Minneapolis Center
10:42 41.0456 -93.2361 258° West 436 502 36,000  Level Minneapolis Center
10:43 41.0197 -93.3928 258° West 437 503 36,000  Level Minneapolis Center
10:44 40.9892 -93.5797 258° West 439 505 36,000  Level Minneapolis Center
10:45 40.9631 -93.7347 257° West 437 503 36,000  Level Minneapolis Center
10:46 40.9383 -93.8878 258° West 433 498 36,000  Level Minneapolis Center
10:47 40.9092 -94.0419 256° West 434 499 36,000  Level Minneapolis Center
10:48 40.8833 -94.1933 257° West 430 495 36,000  Level Minneapolis Center
10:49 40.8497 -94.3772 256° West 432 497 36,000  Level Minneapolis Center
10:50 40.8233 -94.5300 257° West 431 496 36,000  Level Minneapolis Center
10:51 40.7981 -94.6750 257° West 429 494 36,000  Level Minneapolis Center
10:52 40.7714 -94.8289 257° West 429 494 36,000  Level Minneapolis Center
10:53 40.7436 -94.9842 257° West 431 496 36,000  Level Minneapolis Center
10:55 40.7144 -95.1389 256° West 432 497 36,000  Level Minneapolis Center
10:56 40.6764 -95.3531 257° West 430 495 36,000  Level Minneapolis Center
10:57 40.6478 -95.5081 256° West 430 495 36,000  Level Minneapolis Center
10:58 40.6189 -95.6639 256° West 434 499 36,000  Level Minneapolis Center
10:59 40.5956 -95.7883 256° West 435 501 36,000  Level Minneapolis Center
11:00 40.5606 -95.9756 256° West 438 504 36,000  Level Minneapolis Center
11:01 40.5303 -96.1294 256° West 434 499 36,000  Level Minneapolis Center
11:02 40.5008 -96.2861 256° West 438 504 36,000  Level Minneapolis Center
11:03 40.4767 -96.4092 256° West 437 503 36,000  Level Minneapolis Center
11:04 40.4397 -96.5964 256° West 439 505 36,000  Level Minneapolis Center
11:05 40.4094 -96.7511 256° West 437 503 36,000  Level Minneapolis Center
11:06 40.3731 -96.9378 256° West 438 504 36,000  Level Minneapolis Center
11:07 40.3417 -97.0908 255° West 436 502 36,000  Level Minneapolis Center
11:08 40.3103 -97.2456 255° West 437 503 36,000  Level Minneapolis Center
11:09 40.2781 -97.4106 256° West 438 504 36,000  Level Minneapolis Center
11:10 40.2467 -97.5639 255° West 437 503 36,000  Level Minneapolis Center
11:11 40.2144 -97.7181 255° West 438 504 36,000  Level Minneapolis Center
11:12 40.1825 -97.8728 255° West 439 505 36,000  Level Minneapolis Center
11:13 40.1497 -98.0281 255° West 440 506 36,000  Level Minneapolis Center
11:14 40.1161 -98.1819 254° West 440 506 36,000  Level Minneapolis Center
11:15 40.0842 -98.3389 255° West 443 510 36,000  Level Minneapolis Center
11:16 40.0511 -98.4933 254° West 442 509 36,000  Level Minneapolis Center
11:17 40.0244 -98.6192 255° West 445 512 36,000  Level Minneapolis Center
11:18 39.9831 -98.8064 254° West 446 513 36,000  Level Minneapolis Center
11:19 39.9422 -98.9939 254° West 446 513 36,000  Level Minneapolis Center
11:20 39.9147 -99.1194 254° West 446 513 36,000 60 Level Denver Center
11:21 39.8803 -99.2739 254° West 444 511 36,200 480 Climbing Denver Center
11:22 39.8456 -99.4289 254° West 445 512 37,000 360 Climbing Denver Center
11:23 39.8114 -99.5825 254° West 444 511 37,000  Level Denver Center
11:24 39.7764 -99.7344 253° West 438 504 37,000  Level Denver Center
11:25 39.7417 -99.8867 254° West 440 506 37,000  Level Denver Center
11:26 39.7008 -100.0658 254° West 438 504 37,000  Level Denver Center
11:27 39.6667 -100.2114 253° West 439 505 37,000  Level Denver Center
11:28 39.6267 -100.3819 253° West 441 507 37,000  Level Denver Center
11:29 39.5928 -100.5272 253° West 440 506 37,000  Level Denver Center
11:30 39.5589 -100.6731 253° West 441 507 37,000  Level Denver Center
11:31 39.5186 -100.8397 253° West 435 501 37,000  Level Denver Center
11:32 39.4833 -100.9844 253° West 437 503 37,000  Level Denver Center
11:33 39.4431 -101.1542 253° West 439 505 37,000  Level Denver Center
11:34 39.4086 -101.2972 253° West 434 499 37,000  Level Denver Center
11:35 39.3683 -101.4664 253° West 441 507 37,000  Level Denver Center
11:37 39.3319 -101.6078 252° West 435 501 37,000  Level Denver Center
11:38 39.2947 -101.7633 253° West 440 506 37,100 480 Climbing Denver Center
11:39 39.2525 -101.9303 252° West 437 503 38,000 420 Climbing Denver Center
11:40 39.2172 -102.0703 252° West 433 498 38,000  Level Denver Center
11:41 39.1753 -102.2364 252° West 435 501 38,000  Level Denver Center
11:42 39.1392 -102.3778 252° West 435 501 38,000  Level Denver Center
11:43 39.0972 -102.5442 252° West 438 504 38,000  Level Denver Center
11:44 39.0603 -102.6842 251° West 435 501 38,000  Level Denver Center
11:45 39.0231 -102.8353 252° West 436 502 38,000  Level Denver Center
11:46 38.9831 -102.9839 251° West 436 502 38,000  Level Denver Center
11:47 38.9456 -103.1339 252° West 436 502 38,000  Level Denver Center
11:48 38.9053 -103.2819 251° West 436 502 38,000  Level Denver Center
11:49 38.8606 -103.4539 252° West 432 497 38,000  Level Denver Center
11:50 38.8231 -103.5922 251° West 433 498 38,000  Level Denver Center
11:51 38.7861 -103.7328 251° West 434 499 38,000  Level Denver Center
11:52 38.7422 -103.8928 251° West 431 496 38,000  Level Denver Center
11:53 38.7053 -104.0308 251° West 429 494 38,000  Level Denver Center
11:54 38.6625 -104.1881 251° West 432 497 38,000  Level Denver Center
11:55 38.6222 -104.3358 251° West 434 499 38,000  Level Denver Center
11:56 38.5819 -104.4839 251° West 436 502 38,000  Level Denver Center
11:57 38.5406 -104.6328 250° West 438 504 38,000  Level Denver Center
11:58 38.4925 -104.8072 251° West 441 507 38,000  Level Denver Center
11:59 38.4503 -104.9550 250° West 439 505 38,000  Level Denver Center
12:00 38.4086 -105.1019 250° West 436 502 38,000  Level Denver Center
12:01 38.3672 -105.2489 250° West 437 503 38,000  Level Denver Center
12:02 38.3367 -105.3550 250° West 432 497 38,000  Level Denver Center
12:03 38.2844 -105.5378 250° West 431 496 38,000  Level Denver Center
12:04 38.2442 -105.6767 250° West 435 501 38,000  Level Denver Center
12:05 38.1986 -105.8350 250° West 429 494 38,000  Level Denver Center
12:06 38.1581 -105.9731 250° West 435 501 38,000  Level Denver Center
12:07 38.1078 -106.1428 249° West 437 503 38,000  Level Denver Center
12:09 38.0694 -106.2722 249° West 439 505 38,000  Level Denver Center
12:10 38.0214 -106.4331 249° West 438 504 38,000  Level Denver Center
12:11 37.9775 -106.5808 249° West 435 501 38,000  Level Denver Center
12:12 37.9364 -106.7186 249° West 435 501 38,000  Level Denver Center
12:13 37.8886 -106.8794 249° West 437 503 38,000  Level Denver Center
12:14 37.8464 -107.0164 249° West 436 502 38,000  Level Denver Center
12:15 37.8022 -107.1619 249° West 434 499 38,000  Level Denver Center
12:16 37.7531 -107.3222 249° West 437 503 38,000  Level Denver Center
12:17 37.7114 -107.4597 249° West 438 504 38,000  Level Denver Center
12:18 37.6614 -107.6197 249° West 438 504 38,000  Level Denver Center
12:19 37.6264 -107.7356 249° West 441 507 38,000  Level Denver Center
12:20 37.5683 -107.9178 248° West 442 509 38,000  Level Denver Center
12:21 37.5258 -108.0547 249° West 441 507 38,000  Level Denver Center
12:22 37.4756 -108.2147 248° West 439 505 38,000  Level Denver Center
12:23 37.4322 -108.3506 248° West 439 505 38,000  Level Denver Center
12:24 37.3811 -108.5108 248° West 443 510 38,000  Level Denver Center
12:25 37.3378 -108.6483 248° West 442 509 38,000  Level Denver Center
12:26 37.2936 -108.7806 247° West 435 501 38,000  Level Denver Center
12:27 37.2425 -108.9386 248° West 437 503 38,000  Level Denver Center
12:28 37.1981 -109.0750 248° West 441 507 38,000  Level Denver Center
12:29 37.1469 -109.2339 248° West 443 510 38,000  Level Denver Center
12:30 37.1089 -109.3453 247° West 439 505 38,000  Level Denver Center
12:31 37.0497 -109.5267 248° West 441 507 38,000  Level Denver Center
12:32 37.0044 -109.6617 247° West 442 509 38,000  Level Denver Center
12:33 36.9511 -109.8200 247° West 443 510 38,000  Level Denver Center
12:34 36.9061 -109.9556 247° West 442 509 38,000  Level Denver Center
12:35 36.8519 -110.1161 247° West 447 514 38,000  Level Denver Center
12:36 36.8081 -110.2450 247° West 446 513 38,000  Level Denver Center
12:37 36.7506 -110.4156 247° West 445 512 38,000  Level Denver Center
12:38 36.7017 -110.5572 247° West 446 513 38,000  Level Denver Center
12:40 36.6528 -110.6994 247° West 448 516 38,000  Level Denver Center
12:41 36.6039 -110.8394 247° West 444 511 38,000  Level Denver Center
12:42 36.5556 -110.9814 247° West 444 511 38,000  Level Denver Center
12:43 36.5067 -111.1217 247° West 443 510 38,000  Level Denver Center
12:44 36.4461 -111.2900 246° West 444 511 38,000  Level Denver Center
12:45 36.3972 -111.4303 247° West 443 510 38,000  Level Denver Center
12:46 36.3481 -111.5689 246° West 441 507 38,000  Level Denver Center
12:47 36.2986 -111.7092 246° West 442 509 38,000  Level Denver Center
12:48 36.2481 -111.8508 246° West 447 514 38,000  Level Denver Center
12:49 36.1975 -111.9914 246° West 447 514 38,000  Level Denver Center
12:50 36.1528 -112.1131 246° West 450 518 38,000  Level Los Angeles Center
12:51 36.0931 -112.2803 246° West 455 524 38,000  Level Los Angeles Center
12:52 36.0417 -112.4222 246° West 455 524 38,000  Level Los Angeles Center
12:53 35.9889 -112.5644 245° Southwest 454 522 38,000  Level Los Angeles Center
12:54 35.9375 -112.7069 246° West 453 521 38,000  Level Los Angeles Center
12:55 35.8856 -112.8472 245° Southwest 455 524 38,000  Level Los Angeles Center
12:56 35.8333 -112.9875 245° Southwest 456 525 38,000  Level Los Angeles Center
12:57 35.7814 -113.1275 245° Southwest 456 525 38,000  Level Los Angeles Center
12:58 35.7194 -113.2950 246° West 456 525 38,000  Level Los Angeles Center
12:59 35.6567 -113.4597 245° Southwest 452 520 38,000  Level Los Angeles Center
13:00 35.6036 -113.5997 245° Southwest 456 525 38,000  Level Los Angeles Center
13:01 35.5367 -113.7625 243° Southwest 451 519 38,000  Level Los Angeles Center
13:02 35.4811 -113.8986 243° Southwest 450 518 38,000  Level Los Angeles Center
13:03 35.4292 -114.0253 243° Southwest 451 519 38,000  Level Los Angeles Center
13:04 35.3619 -114.1894 243° Southwest 449 517 38,000  Level Los Angeles Center
13:05 35.3056 -114.3258 243° Southwest 448 516 38,000  Level Los Angeles Center
13:06 35.2489 -114.4639 243° Southwest 453 521 38,000  Level Los Angeles Center
13:07 35.1917 -114.6028 243° Southwest 454 522 38,000  Level Los Angeles Center
13:08 35.1339 -114.7378 242° Southwest 450 518 38,000  Level Los Angeles Center
13:10 35.0775 -114.8731 243° Southwest 447 514 38,000 -540 Level Los Angeles Center
13:11 35.0000 -115.0586 243° Southwest 439 505 36,900 -900 Descending Los Angeles Center
13:12 34.9422 -115.1950 243° Southwest 445 512 36,000 -960 Descending Los Angeles Center
13:13 34.8703 -115.3625 242° Southwest 457 526 34,800 -960 Descending Los Angeles Center
13:14 34.8119 -115.5011 243° Southwest 460 529 34,000 -420 Descending Los Angeles Center
13:15 34.7539 -115.6389 243° Southwest 458 527 34,000  Level Los Angeles Center
13:16 34.6950 -115.7725 242° Southwest 452 520 34,000  Level Los Angeles Center
13:17 34.6369 -115.9064 242° Southwest 449 517 34,000  Level Los Angeles Center
13:18 34.5692 -116.0636 242° Southwest 441 507 34,000 -240 Level Los Angeles Center
13:19 34.5117 -116.1944 242° Southwest 439 505 33,600 -1,500 Descending Los Angeles Center
13:20 34.4558 -116.3233 242° Southwest 432 497 31,000 -2,340 Descending Los Angeles Center
13:21 34.3972 -116.4581 242° Southwest 448 516 28,800 -2,100 Descending Los Angeles Center
13:22 34.3375 -116.5928 242° Southwest 453 521 26,700 -1,500 Descending Los Angeles Center
13:23 34.2911 -116.6950 241° Southwest 439 505 25,800 -1,800 Descending Los Angeles Center
13:24 34.2136 -116.8697 242° Southwest 422 486 23,000 -2,340 Descending Los Angeles Center
13:25 34.1608 -116.9889 242° Southwest 406 467 21,000 -1,980 Descending Los Angeles Center
13:27 34.1067 -117.1106 242° Southwest 396 456 19,000 -1,380 Descending Los Angeles Center
13:27 34.0833 -117.1667 243° Southwest 375 432 19,000 -1,200 Level Southern California TRACON
13:28 34.0500 -117.2667 248° West 371 427 17,300 -2,460 Descending Southern California TRACON
13:29 34.0333 -117.4000 261° West 388 447 14,100 -3,060 Descending Southern California TRACON
13:30 34.0167 -117.5167 260° West 386 444 11,500 -1,980 Descending Southern California TRACON
13:31 34.0167 -117.6500 270° West 375 432 10,200 -1,140 Descending Southern California TRACON
13:32 34.0000 -117.7500 259° West 291 335 9,200 -1,200 Descending Southern California TRACON
13:33 33.9833 -117.8333 256° West 289 333 8,000 -1,260 Descending Southern California TRACON
13:34 33.9833 -117.9333 270° West 282 325 6,800 -1,200 Descending Southern California TRACON
13:35 33.9667 -118.0333 259° West 271 312 5,600 -1,200 Descending Southern California TRACON
13:36 33.9667 -118.1167 270° West 250 288 4,500 -1,140 Descending Southern California TRACON
13:37 33.9500 -118.1833 253° West 239 275 3,400 -900 Descending Southern California TRACON
13:38 33.9500 -118.2500 270° West 192 221 2,700 -900 Descending Southern California TRACON
13:39 33.9500 -118.3167 270° West 165 190 1,600 -1,140 Descending Southern California TRACON
13:40 33.9333 -118.3667 248° West 151 174 500 -960 Descending Southern California TRACON
13:40 33.9400 -118.3689 345° North 168 193 400 -360 Descending Los Angeles Center
13:42 33.9333 -118.4000 259° West  Level FlightAware Approximate
13:49 33.9425 -118.4081 259° West  Level Estimated